Printer-friendly version

IAU Minor Planet Center

Minor Planet Center

MPEC 2007-A07 : COMET C/2006 U6 (SPACEWATCH)

The following Minor Planet Electronic Circular may be linked-to from your own Web pages, but must not otherwise be redistributed electronically.


Read MPEC 2007-A06 Read MPEC 2007-A08


M.P.E.C. 2007-A07                                Issued 2007 Jan. 5, 02:52 UT

     The Minor Planet Electronic Circulars contain information on unusual
         minor planets and routine data on comets.  They are published
   on behalf of Commission 20 of the International Astronomical Union by the
          Minor Planet Center, Smithsonian Astrophysical Observatory,
                          Cambridge, MA 02138, U.S.A.

             Prepared using the Tamkin Foundation Computer Network

                              MPC@CFA.HARVARD.EDU
          URL http://cfa-www.harvard.edu/iau/mpc.html  ISSN 1523-6714

                         COMET C/2006 U6 (SPACEWATCH)

Observations:
    CK06U060  C2006 12 23.80670 23 23 31.22 -03 01 21.5          18.9 N EA007204
    CK06U060  C2006 12 23.83467 23 23 31.56 -03 01 26.2                 EA007204
    CK06U060  C2007 01 01.07407 23 25 34.76 -03 24 16.9          19.0 T EA007673
    CK06U060  C2007 01 01.07755 23 25 34.81 -03 24 17.3                 EA007673
    CK06U060  C2007 01 01.08530 23 25 34.95 -03 24 19.1                 EA007673
    CK06U060  C2007 01 01.09416 23 25 35.09 -03 24 20.5                 EA007673

Observer details:
204 Schiaparelli Observatory.  Observers L. Buzzi, F. Luppi.  Measurer
    L. Buzzi.  0.60-m f/4.64 reflector + CCD.
673 Table Mountain Observatory, Wrightwood.  Observer J. Young.  0.61-m f/16
    Cassegrain + CCD.

Orbital elements:
    C/2006 U6 (Spacewatch)
Epoch 2008 June 23.0 TT = JDT 2454640.5
T 2008 June 5.49059 TT                                  MPC
q   2.4979776            (2000.0)            P               Q
z  +0.0005613      Peri.  276.60979     -0.11539349     -0.99331463
 +/-0.0000772      Node   180.18544     +0.47464008     -0.05798928
e   0.9985979      Incl.   84.87395     -0.87258302     +0.09981629
Residuals in seconds of arc
061019 691  0.4-  0.1-    061029 448  0.3+  0.1-    061113 703  1.0+  0.6-
061019 691  0.3-  0.1-    061029 734  1.5-  1.1+    061113 703  0.3-  0.6-
061019 691  0.3-  0.1-    061029 448  0.3+  0.8-    061113 104  0.1-  0.2+
061021 691  0.2+  0.0     061029 448  0.2-  0.8+    061113 104  0.1+  0.6+
061021 691  0.2+  0.0     061029 673  0.2+  0.1-    061113 104  0.1+  0.0
061021 691  0.4+  0.4+    061029 673  0.3+  0.2+    061113 104  0.2-  0.1+
061021 691  0.2-  0.1-    061029 673  0.2+  0.1-    061115 215  0.6-  0.7+
061021 691  0.1-  0.1-    061029 673  0.3+  0.0     061115 215  0.8-  0.8+
061021 691  0.0   0.3+    061029 703  0.7-  0.1+    061115 215  0.8-  0.7+
061022 644  0.2-  0.0     061029 703  1.4+  0.1-    061116 246  0.8-  1.0-
061022 644  0.2-  0.1-    061029 703  0.5-  0.0     061116 246  0.9-  0.8-
061022 644  0.2-  0.2+    061029 703  0.3+  0.2-    061116 246  0.7-  0.8-
061023 644  0.1+  0.0     061030 734  0.3+  0.2+    061116 246  0.3-  0.3+
061023 644  0.1+  0.0     061030 734  0.4+  0.2-    061126 151  0.6-  0.6+
061023 691  0.2+  0.2-    061030 734  0.0   0.2+    061126 151  0.4-  0.5+
061023 691  0.4+  0.4+    061030 673  0.3+  0.3-    061126 151  0.2+  0.3+
061023 644  0.9-  0.4+    061030 673  0.2-  0.5+    061214 704  0.3+  0.0
061023 691  0.3-  0.1-    061030 673  0.0   0.1-    061214 704  0.6-  0.1-
061023 691  0.2-  0.2+    061030 673  0.2+  0.4-    061214 704  0.4-  0.4-
061023 691  0.1+  0.2-    061030 A99  0.4+  0.5+    061214 704  0.4+  0.6-
061023 691  0.0   0.2-    061030 A99  0.2+  0.8+    061215 215  0.5-  0.6-
061024 644  0.2-  0.3+    061030 A99  0.1-  0.9+    061223 246  0.3-  0.3+
061024 644  0.2+  0.2-    061031 585  0.2+  0.8+    061223 246  0.4-  0.2-
061024 644  0.1-  0.3-    061106 213  0.3+  0.7-    061223 246  0.3-  0.3+
061027 691  0.2+  0.4-    061106 213  0.3+  0.6-    061223 246  0.1-  0.1+
061027 691  0.1+  0.1+    061106 213  0.3+  0.8-    061223 246  0.0   0.6+
061027 691  0.2-  0.0     061109 104  0.1+  0.2+    061223 246  0.1-  0.5+
061028 734  0.4+  0.2-    061109 104  0.1+  0.1-    061223 246  0.0   0.4+
061028 734  0.5+  1.0-    061109 104  0.1+  0.3-    061223 204  0.2-  0.6-
061028 734  0.1+  1.0-    061109 104  0.5-  0.1+    061223 204  0.2-  0.1-
061028 448  0.1+  0.0     061110 673  0.1+  0.0     061224 246  0.6+  0.1+
061028 448  0.3-  0.2-    061110 673  0.1+  0.1+    061224 246  0.5+  0.6+
061028 448  0.1-  0.3-    061110 673  0.2+  0.2+    061224 246  0.9+  0.1+
061028 651  0.4-  0.8+    061110 673  0.0   0.2+    061224 246  0.9+  0.3-
061028 651  0.5+  0.8+    061111 204  0.0   0.1-    061224 246  0.8+  0.2+
061028 651  0.4+  1.0+    061111 204  0.2+  0.3+    061224 246  0.8+  0.5+
061028 G96  0.0   0.6-    061112 372  0.3-  0.4-    070101 673  0.3-  0.0
061028 G96  0.1+  0.4-    061112 372  1.3+  0.0     070101 673  0.4-  0.1+
061028 G96  0.1+  0.4-    061112 130 (2.2-  1.0+)   070101 673  0.3-  0.5-
061029 734  0.3-  0.7-    061113 703  0.1+  1.0-    070101 673  0.4-  0.6-
061029 734  0.7-  0.8+    061113 703  1.6+  0.1-

     The "original" and "future" barycentric values of 1/a are +0.000604
and +0.000590 (+/- 0.000077) AU^-1, respectively.

Brian G. Marsden             (C) Copyright 2007 MPC           M.P.E.C. 2007-A07

Read MPEC 2007-A06 Read MPEC 2007-A08


Our Web policy. Index to the CBAT/MPC/ICQ pages.


Valid HTML 4.01!